Regional Weather Roundup
Issued by NWS Upton, NY

Current Version | Previous Version | Text Only | Print | Product List | Glossary On
Versions: 1 2 3 4 5 6 7 8 9 10 11 12 13 14 15 16 17 18 19 20 21 22 23 24 25 26 27 28 29 30 31 32 33 34 35 36 37 38 39 40 41 42 43 44 45 46 47 48 49 50
165 ASUS41 KOKX 202308 RWROKX REGIONAL WEATHER ROUNDUP NATIONAL WEATHER SERVICE NEW YORK NY 600 PM EST FRI JAN 20 2017 NOTE: "FAIR" INDICATES FEW OR NO CLOUDS BELOW 12,000 FEET WITH NO SIGNIFICANT WEATHER AND/OR OBSTRUCTIONS TO VISIBILITY. NYZ071-072-176-178-NJZ106-104-210000- NEW YORK CITY METRO AREA CITY SKY/WX TMP DP RH WIND PRES REMARKS Central Park LGT RAIN 40 38 93 CALM 29.95S Wall St Helipt CLOUDY 41 38 89 VRB5 29.95S LaGuardia APRT LGT RAIN 43 36 76 VRB6 29.94R Kennedy INTL LGT RAIN 42 41 96 E5 29.95S Breezy Point N/A 39 N/A N/A E6 N/A WCI 35 Newark/Liberty LGT RAIN 42 39 89 SE7 29.93S Teterboro LGT RAIN 42 40 92 CALM 29.93R FOG $$ NYZ177-179-078>081-210000- LONG ISLAND NEW YORK CITY SKY/WX TMP DP RH WIND PRES REMARKS Jones Beach N/A 39 N/A N/A E3 N/A Matinecock PT NOT AVBL Farmingdale LGT RAIN 41 35 79 SE5 29.94S MacArthur/ISP LGT RAIN 42 36 79 E6 29.94S Shirley CLOUDY 41 36 82 CALM 29.95S Westhampton CLOUDY 41 34 76 CALM 29.96S Southampton NOT AVBL Bridgehampton NOT AVBL East Hampton CLOUDY 40 33 77 CALM 29.96R Montauk N/A 41 33 73 CALM 29.97S $$ NYZ052-065-067-210000- HUDSON VALLEY CITY SKY/WX TMP DP RH WIND PRES REMARKS White Plains DRIZZLE 39 32 76 SE6 29.92R WCI 35 Newburgh CLOUDY 39 37 93 SE6 29.92S WCI 35 Montgomery CLOUDY 40 35 83 CALM 29.89S Poughkeepsie CLOUDY 39 35 86 SE3 29.91S Albany CLOUDY 40 31 70 CALM 29.91R $$ NJZ001-105-106-008-010-013-015-019>022-104-210000- NEW JERSEY CITY SKY/WX TMP DP RH WIND PRES REMARKS Newark/Liberty LGT RAIN 42 39 89 SE7 29.93S Teterboro LGT RAIN 42 40 92 CALM 29.93R FOG Caldwell LGT RAIN 41 39 93 S3 29.93S FOG Somerville CLOUDY 40 39 97 CALM 29.90F FOG Linden DRIZZLE 41 39 91 CALM 29.93S Sussex LGT RAIN 39 38 96 CALM 29.89F VSB 1 Andover N/A 38 37 97 S3 29.89S Trenton CLOUDY 41 40 96 SE5 29.91S FOG Millville CLOUDY 42 42 100 CALM 29.92R Atlantic City CLOUDY 41 39 93 E5 29.90F Wrightstown CLOUDY 41 40 96 E5 29.88F Toms River CLOUDY 41 40 96 CALM 29.93S FOG Belmar CLOUDY 41 40 96 E3 29.93F $$ PAZ047>061-062-071-210000- EASTERN PENNSYLVANIA CITY SKY/WX TMP DP RH WIND PRES REMARKS Philadelphia CLOUDY 41 39 93 CALM 29.92R Allentown CLOUDY 40 36 86 E3 29.90S FOG Scranton LGT RAIN 38 38 100 NE3 29.84R FOG $$ CTZ002-004>006-009-010-012-RIZ004-006-007-MAZ004-011-015-210000- SOUTHERN NEW ENGLAND IN CT CITY SKY/WX TMP DP RH WIND PRES REMARKS Bradley INTL CLOUDY 40 31 70 S6 29.94S Hartford CLOUDY 39 32 76 SE3 29.95S Danbury CLOUDY 39 33 79 SE3 29.93S Wtrbury/Oxford CLOUDY 39 28 65 S3 29.93S Bridgeport CLOUDY 41 36 82 E6 29.95S Meriden CLOUDY 41 31 67 SE3 29.95R New Haven CLOUDY 40 34 79 E3 29.95S Chester CLOUDY 39 32 75 SE3 29.95R Groton CLOUDY 41 33 73 S6 29.96S Wilimantic CLOUDY 41 32 70 CALM 29.96R IN RI CITY SKY/WX TMP DP RH WIND PRES REMARKS Providence CLOUDY 39 31 72 S7 29.96R WCI 34 Block Island NOT AVBL Westerly CLOUDY 41 30 65 S5 29.97R IN MA CITY SKY/WX TMP DP RH WIND PRES REMARKS Boston CLOUDY 39 33 79 SE8 29.96R WCI 33 Worcester CLOUDY 34 27 75 W5 29.92R WCI 30 Westfield CLOUDY 38 31 76 SE3 29.94R Provincetown CLOUDY 39 31 72 SE3 29.97S Nantucket CLOUDY 40 32 73 CALM 29.97R $$ ANZ330-335-338-340-345-350-353-355-210000- COASTAL MARINE OBSERVATIONS STATION/POSITION TIME SKY/WX TEMP WIND PRES VSBY WAVE AIR SEA DIR/SP/G HT/PER (UTC) (F) (DEG/KT/KT) (MB) (MI) (FT/S) NY HARB ENTRANCE 2150 42 44 90/ 8/ 10 1013.6 4/13 20 S FIRE ISLAND 2250 44 45 80/ 2/ 6 1013.7 4/12 GREAT SOUTH BAY NOT AVBL 23 SSW MONTAUK P 2150 44 48 120/ 6/ 8 1014.7 4/ 8 15 E BARNEGAT LI 2230 47 N/A 4/11 HUDSON CANYON 2150 48 51 1013.9 4/12 KINGS POINT 2230 40 39 1013.6 EXECUTION ROCKS 2245 40 170/ 2/ 4 N/A CENTRAL LI SOUND NOT AVBL EASTERN LI SOUND NOT AVBL ROBBINS REEF 2230 41 150/ 9/ 9 1013.8 $$ >>>>>>>>>>>>>>>>>>>>>>>>>>>> KEY <<<<<<<<<<<<<<<<<<<<<<<<<<< > < > SKY/WX - Sky Condition/Present Weather < > TMP - Temperature in Fahrenheit < > DP - Dew Point in Fahrenheit < > RH - Relative Humidity in Percent < > WIND - Direction (from) and Speed in MPH < > PRES - Mean Sea Level Pressure (inches of Hg) < > WCI - Wind Chill Index < > VSB - VISIBILITY IN MILES < > HX - HEAT INDEX < > TC - TEMPERATURE IN CELSIUS < > VRB - VARIABLE WIND DIRECTION < > < >>>>>>>>>>>>>>>>>>>>>>>>>>>> KEY <<<<<<<<<<<<<<<<<<<<<<<<<<<

USA.gov is the U.S. government's official web portal to all federal, state and local government web resources and services.